Content
SEND FEEDBACK

Daily
Averages
Monthly
Summary
United States of America

CAMP QUEZON, GUAM


Home > North America > United States > Guam
Elevation: 82 meters     Latitude: 13 28N     Longitude: 144 48E

WEATHER
 
SELECT A DAY
Number of Records: 215,568;   Date Range: 1/1/95 - 12/19/14
 
SHARE

PRINT THIS DATA

[ ← Previous Day ]
WEATHER ALMANAC - 31 DECEMBER, 2013
[ Next Day → ]
[ °F ]   °C
Weather ElementAverageHighLow
Temperature27 °C29.4 °C (12:54 pm)25 °C (1:54 am)
Dewpoint22.8 °C23.9 °C (8:54 am)21.7 °C (12:54 pm)
Humidity78.3 %90 % (3:54 am)63 % (12:54 pm)
Barometer1011.5 hPa1013.5 hPa (8:54 am)1009.5 hPa (3:54 pm)
Wind Speed19.8 km/h33.3 km/h (12:54 pm)
Wind Gust38.9 km/h (1:54 pm)
Weather ElementAverage
Visibility15.8 km
Wind DirectionENE (54 °)

Weather ElementTotal
Precipitation---
Cooling Degree Days8.9 (Base 18.3)
Growing Degree Days17.2 (Base 10)
Averaged from 25 records on 31 December, 2013
WEATHER CONDITIONS BREAKOUT
WIND DIRECTION BREAKOUT
WEATHER BY HOUR - 31 DECEMBER, 2013
[ °F ]   °C
Local TimeTemperatureDewpointHumidityBarometerVisibilityWind DirectionWind SpeedGust SpeedPrecipitationEventsConditions
1:54 AM25 °C22.8 °C88 %1011.2 hPa16.1 kmNE (50°)11.1 km/hPartly Cloudy
2:54 AM25.6 °C22.8 °C84 %1010.5 hPa16.1 kmNE (50°)11.1 km/hClear
3:54 AM25 °C23.3 °C90 %1010.5 hPa16.1 kmNorth (10°)7.4 km/h0 mmMostly Cloudy
4:54 AM25 °C23.3 °C90 %1010.8 hPa16.1 kmNE (50°)9.3 km/hMostly Cloudy
5:54 AM25 °C22.8 °C88 %1011.2 hPa16.1 kmNE (50°)13 km/hClear
6:54 AM25 °C23.3 °C90 %1011.9 hPa16.1 kmNE (50°)13 km/hPartly Cloudy
7:54 AM25.6 °C23.3 °C87 %1012.9 hPa9.7 kmNE (50°)18.5 km/h0 mmRainLight Rain
8:54 AM27.2 °C23.9 °C82 %1013.5 hPa16.1 kmENE (60°)20.4 km/h0 mmScattered Clouds
9:54 AM28.9 °C22.2 °C67 %1013.5 hPa16.1 kmENE (70°)24.1 km/h37 km/hScattered Clouds
10:54 AM28.3 °C22.8 °C72 %1013.2 hPa16.1 kmENE (70°)31.5 km/hMostly Cloudy
11:54 AM27.8 °C22.2 °C71 %1012.2 hPa16.1 kmENE (60°)18.5 km/h0 mmOvercast
12:54 PM29.4 °C21.7 °C63 %1011.5 hPa16.1 kmENE (60°)33.3 km/hMostly Cloudy
1:54 PM29.4 °C21.7 °C63 %1010.8 hPa16.1 kmENE (70°)25.9 km/h38.9 km/h0 mmMostly Cloudy
2:54 PM29.4 °C22.2 °C65 %1010.2 hPa16.1 kmENE (60°)29.6 km/h37 km/hPartly Cloudy
3:54 PM28.9 °C23.3 °C72 %1009.5 hPa16.1 kmNE (40°)29.6 km/hMostly Cloudy
4:41 PM28 °C22 °C70 %1010.5 hPa16.1 kmNE (50°)27.8 km/h38.9 km/hMostly Cloudy
4:51 PM28 °C23 °C74 %1010.5 hPa16.1 kmNE (50°)25.9 km/hScattered Clouds
4:54 PM28.3 °C22.8 °C72 %1009.8 hPa16.1 kmNE (50°)24.1 km/hScattered Clouds
5:54 PM27.2 °C22.8 °C77 %1010.2 hPa16.1 kmNE (50°)20.4 km/hPartly Cloudy
6:54 PM26.7 °C22.8 °C79 %1010.8 hPa16.1 kmNE (50°)20.4 km/hClear
7:54 PM26.7 °C23.3 °C81 %1011.5 hPa16.1 kmNE (50°)14.8 km/h0 mmRainLight Rain
8:54 PM26.1 °C22.8 °C82 %1011.9 hPa16.1 kmENE (60°)16.7 km/h0 mmClear
9:54 PM26.1 °C22.8 °C82 %1011.9 hPa16.1 kmENE (60°)18.5 km/hPartly Cloudy
10:54 PM26.1 °C22.8 °C82 %1011.9 hPa16.1 kmENE (70°)16.7 km/hClear
11:54 PM25.6 °C23.3 °C87 %1011.9 hPa16.1 kmENE (60°)11.1 km/hClear
Hourly data recorded from PGUM, located 0 kilometers away from Camp Quezon, Guam







STORIES FROM OUR PARTNERS